This demonstration page uses our WeatherBlox Daily Observations layout. Learn more.

Left ArrowRight Arrow

41.86663, -103.66717

Hourly Observations for April 13, 2018

Temp ( °F °C ) Dew Point ( °F °C ) Humidity (%) Winds ( mph kmh ) Pressure ( in mb ) Visibility ( mi km ) Precip ( " mm )
12:01 am 00:01 Cloudy with Rain 44 6.7 44 6.7 100 100 NW 23 37 29.59 1002 3 5 0.04 1.02
12:53 am 00:53 Cloudy with Light Rain 44 6.7 43 6.1 96 96 WNW 20 31 29.54 1001 8 13 0.22 5.59
1:34 am 01:34 Cloudy with Light Rain 44 6.7 43 6.1 96 96 NW 16 26 29.59 1002 10 16 0.01 0.25
1:53 am 01:53 Cloudy with Light Rain 44 6.7 42 5.6 93 93 NW 9 15 29.52 1000 10 16 0.01 0.25
2:53 am 02:53 Cloudy 44 6.7 42 5.6 93 93 NNW 13 20 29.47 998 10 16 N/A
3:53 am 03:53 Cloudy with Light Rain 43 6.1 38 3.3 82 82 WNW 14 22 29.49 999 10 16 0.01 0.25
4:40 am 04:40 Cloudy with Light Rain 45 7 39 4 81 81 W 16 26 29.56 1001 10 16 N/A
4:53 am 04:53 Cloudy with Light Rain 44 6.7 41 5 89 89 W 13 20 29.52 1000 10 16 N/A
5:17 am 05:17 Cloudy with Rain 40 4.4 39 3.9 97 97 N 29 46 29.62 1003 5 8 0.04 1.02
5:24 am 05:24 Cloudy with Light Rain 39 4 37 3 93 93 N 32 52 29.65 1004 10 16 N/A
5:53 am 05:53 Cloudy with Light Rain 37 2.8 37 2.8 100 100 N 25 41 29.57 1001 7 11 0.07 1.78
6:53 am 06:53 Cloudy with Light Rain 37 2.8 37 2.8 100 100 NNW 15 24 29.62 1003 10 16 0.03 0.76
7:53 am 07:53 Cloudy with Light Rain 37 2.8 37 2.8 100 100 NNW 13 20 29.67 1005 10 16 0.01 0.25
8:08 am 08:08 Cloudy with Light Snow 35 1.7 35 1.7 100 100 N 16 26 29.77 1008 2 3 N/A
8:23 am 08:23 Cloudy with Light Snow 34 1.1 34 1.1 100 100 N 17 28 29.80 1009 1 2 0.01 0.25
8:44 am 08:44 Mostly Cloudy with Light Snow 34 1 34 1 100 100 NNW 22 35 29.80 1009 1 1 N/A
8:53 am 08:53 Mostly Cloudy with Light Snow 34 1.1 34 1.1 100 100 N 22 35 29.72 1007 1 1 0.02 0.51
9:34 am 09:34 Mostly Cloudy with Snow 34 1 34 1 100 100 NNW 21 33 29.83 1010 1 1 N/A
9:53 am 09:53 Mostly Cloudy with Snow 33 0.6 33 0.6 100 100 N 24 39 29.75 1007 1 1 0.03 0.76
10:01 am 10:01 Mostly Cloudy with Snow 33 0.6 33 0.6 100 100 NNW 22 35 29.83 1010 0 0 N/A
10:04 am 10:04 Mostly Cloudy with Snow 34 1 34 1 100 100 NNW 21 33 29.85 1011 1 1 N/A
10:22 am 10:22 Mostly Cloudy with Light Snow 33 0.6 33 0.6 100 100 NNW 22 35 29.85 1011 1 2 0.01 0.25
10:53 am 10:53 Windy with Snow Likely 33 0.6 33 0.6 100 100 N 25 41 29.79 1009 2 3 0.01 0.25
11:01 am 11:01 Windy with Snow Likely 33 0.6 32 undefined 96 96 N 25 41 29.88 1012 3 4 N/A
11:25 am 11:25 Windy with Snow Likely 32 undefined 32 undefined 100 100 NNW 21 33 29.91 1013 1 2 N/A
11:28 am 11:28 Windy with Snow Likely 32 undefined 32 undefined 100 100 NNW 23 37 29.91 1013 1 1 N/A
11:53 am 11:53 Cloudy with Snow 32 undefined 31 -0.6 96 96 NNW 24 39 29.83 1010 1 1 0.01 0.25
12:32 pm 12:32 Windy with Snow Likely 32 undefined 30 -1 93 93 NNW 21 33 29.94 1014 1 2 N/A
12:53 pm 12:53 Windy with Snow Likely 33 0.6 32 undefined 96 96 NNW 21 33 29.85 1011 1 1 0.01 0.25
1:00 pm 13:00 Windy with Snow Likely 34 1 32 undefined 93 93 NNW 21 33 29.91 1013 1 2 N/A
1:15 pm 13:15 Windy with Snow Likely 34 1.1 33 0.6 97 97 NNW 23 37 29.91 1013 3 4 N/A
1:21 pm 13:21 Windy with Snow Likely 34 1.1 32 undefined 92 92 NNW 24 39 29.91 1013 3 5 N/A
1:46 pm 13:46 Windy with Snow Likely 34 1.1 32 undefined 92 92 NNW 24 39 29.91 1013 3 5 N/A
1:53 pm 13:53 Windy with Snow Likely 34 1.1 34 1.1 100 100 N 22 35 29.86 1011 4 6 N/A
2:33 pm 14:33 Partly Cloudy 34 1 N/A N/A N 22 35 30.00 1016 10 16 N/A
2:53 pm 14:53 Partly Cloudy 34 1 N/A N/A N 29 46 29.91 1013 10 16 N/A
3:15 pm 15:15 Mostly Cloudy 32 undefined N/A N/A N 22 35 30.03 1017 8 13 N/A
3:31 pm 15:31 Cloudy 30 -1 N/A N/A N 32 52 30.06 1018 10 16 N/A
3:53 pm 15:53 Cloudy 30 -1 N/A N/A N 28 44 29.98 1015 7 11 N/A
4:53 pm 16:53 Cloudy 28 -2 N/A N/A N 30 48 30.01 1016 10 16 N/A
5:53 pm 17:53 Cloudy 28 -2 N/A N/A N 24 39 30.08 1019 10 16 N/A
6:53 pm 18:53 Cloudy 27 -3 N/A N/A N 24 39 30.13 1020 10 16 N/A
7:53 pm 19:53 Cloudy 27 -3 N/A N/A N 28 44 30.16 1022 10 16 N/A
8:53 pm 20:53 Cloudy 25 -4 N/A N/A N 22 35 30.21 1023 10 16 N/A
9:53 pm 21:53 Cloudy 25 -4 N/A N/A N 18 30 30.24 1024 10 16 N/A
10:53 pm 22:53 Cloudy 25 -4 N/A N/A N 20 31 30.26 1025 10 16 N/A
11:53 pm 23:53 Cloudy 25 -4 N/A N/A N 24 39 30.27 1025 10 16 N/A

Powered by AerisWeather